FW4070 Weather Reports


Display with metric or nautical units.
time (UTC)temp
F
wind
direction
speed
MPH
gust
MPH
rain 1hr
in
rain 24hr
in
rain mn
in
humidity
%
barometer
mb
20260507043020 43 243 0.0 2.0 0.00 0.33 0.00 83 1013.8
20260507042522 43 243 0.0 2.0 0.00 0.33 0.00 83 1013.7
20260507042036 43 243 0.0 1.0 0.00 0.33 0.00 84 1013.7
20260507041545 43 243 0.0 1.0 0.00 0.33 0.00 84 1013.6
20260507041046 43 243 0.0 1.0 0.00 0.33 0.00 84 1013.7
20260507040551 43 243 0.0 1.0 0.00 0.33 0.00 84 1013.7
20260507040049 43 243 0.0 2.0 0.00 0.40 0.33 84 1013.8
20260507035551 43 243 0.0 2.0 0.00 0.40 0.33 84 1013.9
20260507035057 43 243 0.0 2.0 0.00 0.40 0.33 84 1013.7
20260507034544 43 243 0.0 2.0 0.00 0.40 0.33 84 1013.6
20260507034042 44 243 0.0 2.0 0.00 0.40 0.33 84 1013.6
20260507033553 44 243 0.0 2.0 0.00 0.40 0.33 84 1013.7
20260507033047 44 243 0.0 1.0 0.00 0.40 0.33 84 1013.7
20260507032557 44 243 0.0 1.0 0.00 0.40 0.33 84 1013.7
20260507032047 44 243 0.0 0.0 0.00 0.40 0.33 84 1013.7
20260507031555 44 243 0.0 0.0 0.00 0.40 0.33 84 1013.6
20260507031006 44 243 0.0 0.0 0.00 0.40 0.33 84 1013.6
20260507030521 44 243 0.0 0.0 0.00 0.40 0.33 84 1013.5
20260507030035 44 243 0.0 1.0 0.00 0.46 0.33 84 1013.5
20260507025534 44 243 0.0 1.0 0.00 0.46 0.33 84 1013.5
20260507025045 44 243 0.0 1.0 0.00 0.46 0.33 84 1013.6
20260507024542 44 243 0.0 1.0 0.00 0.46 0.33 84 1013.6
20260507024042 44 245 0.0 0.0 0.00 0.46 0.33 83 1013.5
20260507023548 44 245 0.0 1.0 0.00 0.46 0.33 83 1013.5
20260507023048 44 245 0.0 1.0 0.00 0.46 0.33 83 1013.5
20260507022557 44 245 0.0 1.0 0.00 0.46 0.33 83 1013.6
20260507022005 45 245 0.0 1.0 0.00 0.46 0.33 82 1013.5
20260507021533 45 245 0.0 2.0 0.00 0.46 0.33 82 1013.4
20260507021023 45 245 0.0 2.0 0.00 0.46 0.33 82 1013.3
20260507020527 45 245 0.0 2.0 0.00 0.46 0.33 81 1013.3
20260507020021 45 245 0.0 2.0 0.00 0.56 0.33 80 1013.4
20260507015520 45 245 0.0 5.0 0.00 0.56 0.33 80 1013.4
20260507015008 46 245 0.0 5.0 0.00 0.56 0.33 80 1013.3
20260507014526 46 235 1.0 5.0 0.00 0.56 0.33 81 1013.5
20260507014036 46 236 1.0 6.0 0.00 0.56 0.33 80 1013.5
20260507013541 46 262 3.0 6.0 0.00 0.56 0.33 80 1013.5
20260507013053 46 232 2.0 6.0 0.00 0.56 0.33 79 1013.5
20260507012505 46 248 2.0 11.0 0.00 0.56 0.33 79 1013.6
20260507012009 46 254 3.0 11.0 0.00 0.56 0.33 78 1013.5
20260507011514 46 238 3.0 9.0 0.00 0.56 0.33 78 1013.6
20260507011052 46 273 3.0 6.0 0.00 0.56 0.33 78 1013.5
20260507010534 46 236 3.0 8.0 0.00 0.56 0.33 77 1013.5
20260507010045 46 240 3.0 9.0 0.00 0.71 0.33 77 1013.4
20260507005527 46 243 2.0 9.0 0.00 0.71 0.33 77 1013.5
20260507005033 46 266 2.0 7.0 0.00 0.71 0.33 76 1013.4
20260507004538 46 236 4.0 7.0 0.00 0.71 0.33 76 1013.3
20260507004053 46 238 3.0 8.0 0.00 0.71 0.33 77 1013.3
20260507003559 46 239 1.0 5.0 0.00 0.71 0.33 78 1013.2
20260507003503 46 215 1.0 5.0 0.00 0.71 0.33 78 1013.2
20260507003053 46 234 2.0 5.0 0.00 0.71 0.33 77 1013.1
20260507002544 45 219 1.0 5.0 0.00 0.71 0.33 77 1013.0
20260507002023 45 218 1.0 7.0 0.00 0.71 0.33 78 1012.9
20260507001533 45 184 0.0 7.0 0.00 0.71 0.33 78 1012.8
20260507001038 45 196 1.0 7.0 0.00 0.71 0.33 78 1012.9
20260507000542 45 244 0.0 3.0 0.00 0.71 0.33 78 1012.8
20260507000057 45 250 0.0 4.0 0.00 0.85 0.33 78 1013.0
20260506235601 45 269 1.0 4.0 0.00 0.85 0.33 77 1013.0
20260506235503 45 268 1.0 4.0 0.00 0.85 0.33 78 1013.0
20260506235025 46 175 0.0 4.0 0.00 0.85 0.33 78 1013.0
20260506234526 46 225 1.0 4.0 0.00 0.85 0.33 78 1013.0
20260506234034 46 221 1.0 6.0 0.00 0.85 0.33 78 1012.9
20260506233542 46 194 3.0 7.0 0.00 0.85 0.33 78 1012.7
20260506233048 46 190 3.0 8.0 0.00 0.85 0.33 77 1012.6
20260506232556 46 211 4.0 7.0 0.00 0.85 0.33 77 1012.5
20260506232100 46 227 3.0 11.0 0.00 0.85 0.33 77 1012.6
20260506231510 46 227 5.0 11.0 0.00 0.85 0.33 77 1012.6
20260506231059 46 261 3.0 10.0 0.00 0.85 0.33 77 1012.7
20260506230504 46 256 3.0 9.0 0.00 0.85 0.33 77 1012.6
20260506230006 46 257 1.0 12.0 0.00 0.99 0.33 77 1012.5
20260506225522 47 237 5.0 12.0 0.00 0.99 0.33 76 1012.5
20260506225028 47 236 4.0 12.0 0.00 0.99 0.33 76 1012.6
20260506224537 47 239 5.0 12.0 0.00 0.99 0.33 77 1012.6
20260506224028 47 268 4.0 12.0 0.00 0.99 0.33 77 1012.4
20260506223534 47 273 4.0 12.0 0.00 0.99 0.33 77 1012.4
20260506223030 47 241 6.0 12.0 0.00 0.99 0.33 76 1012.4
20260506222538 47 237 7.0 11.0 0.00 0.99 0.33 75 1012.4
20260506222045 47 240 4.0 11.0 0.00 0.99 0.33 75 1012.4
20260506221548 47 272 5.0 11.0 0.00 0.99 0.33 75 1012.3
20260506221059 48 236 3.0 12.0 0.00 0.99 0.33 75 1012.2
20260506220506 48 249 5.0 10.0 0.00 0.99 0.33 75 1012.3
20260506220003 48 229 5.0 9.0 0.00 1.17 0.33 75 1012.2
20260506215515 48 303 1.0 9.0 0.00 1.17 0.33 75 1012.0
20260506215020 49 334 3.0 9.0 0.00 1.17 0.33 73 1011.8
20260506214540 49 244 4.0 12.0 0.00 1.17 0.33 72 1011.7
20260506214044 49 236 8.0 17.0 0.00 1.17 0.33 71 1011.5
20260506213555 48 260 7.0 17.0 0.00 1.17 0.33 71 1011.4
20260506213002 48 217 6.0 15.0 0.00 1.17 0.33 72 1011.4
20260506212514 48 244 4.0 10.0 0.00 1.17 0.33 75 1011.3
20260506212027 49 244 4.0 10.0 0.00 1.17 0.33 73 1011.2
20260506211532 49 238 6.0 11.0 0.00 1.17 0.33 73 1011.2
20260506211034 49 240 5.0 11.0 0.00 1.17 0.33 74 1011.3
20260506210540 49 265 5.0 16.0 0.00 1.17 0.33 74 1011.3
20260506210048 49 258 7.0 16.0 0.00 1.23 0.33 72 1011.3
20260506205556 49 284 6.0 13.0 0.00 1.23 0.33 73 1011.1
20260506205051 49 238 5.0 11.0 0.00 1.23 0.33 74 1011.0
20260506204558 49 254 5.0 13.0 0.00 1.23 0.33 73 1010.9
20260506204100 49 211 7.0 13.0 0.00 1.23 0.33 73 1011.0
20260506203513 49 239 5.0 12.0 0.00 1.23 0.33 74 1011.0
20260506203052 49 238 6.0 18.0 0.00 1.23 0.33 74 1011.0
20260506202558 49 253 7.0 18.0 0.00 1.23 0.33 73 1011.1
20260506202101 49 290 8.0 16.0 0.00 1.23 0.33 74 1011.1
20260506201511 50 244 6.0 16.0 0.00 1.23 0.33 75 1011.0
20260506201012 50 251 8.0 16.0 0.00 1.23 0.33 74 1011.0
20260506200523 50 240 4.0 12.0 0.00 1.23 0.33 77 1010.9
20260506200113 50 227 6.0 12.0 0.00 1.23 0.33 77 1011.1
20260506195513 50 247 6.0 11.0 0.00 1.23 0.33 78 1011.1
20260506195054 50 231 4.0 14.0 0.00 1.23 0.33 80 1011.1
20260506194549 49 307 7.0 16.0 0.00 1.23 0.33 80 1011.1
20260506194100 49 261 6.0 16.0 0.00 1.23 0.33 80 1011.0
20260506193505 49 267 6.0 15.0 0.00 1.23 0.33 80 1011.0
20260506193001 49 255 5.0 13.0 0.00 1.23 0.33 81 1011.0
20260506192556 49 256 5.0 15.0 0.00 1.23 0.33 81 1011.0
20260506192003 49 238 5.0 15.0 0.00 1.23 0.33 82 1011.1
20260506191516 50 276 7.0 11.0 0.00 1.23 0.33 82 1011.1
20260506191100 50 227 4.0 11.0 0.00 1.23 0.33 83 1011.0
20260506190504 50 226 5.0 13.0 0.00 1.23 0.33 83 1011.1
20260506190052 50 225 4.0 14.0 0.00 1.23 0.33 84 1011.0
20260506185543 50 242 6.0 16.0 0.00 1.23 0.33 82 1010.9
20260506185058 50 254 9.0 17.0 0.00 1.23 0.33 82 1010.8
20260506184605 50 238 7.0 15.0 0.00 1.23 0.33 85 1010.7
20260506184014 50 240 8.0 15.0 0.00 1.23 0.33 85 1010.7
20260506183518 50 263 7.0 14.0 0.00 1.23 0.33 86 1010.7
20260506183030 50 252 8.0 14.0 0.00 1.23 0.33 87 1010.8
20260506182537 50 252 7.0 12.0 0.00 1.23 0.33 87 1010.8
20260506182044 50 254 7.0 13.0 0.00 1.23 0.33 86 1010.7
20260506181558 51 238 7.0 16.0 0.00 1.23 0.33 86 1010.6
20260506181055 51 238 6.0 16.0 0.00 1.23 0.33 86 1010.5
20260506180545 50 286 4.0 12.0 0.00 1.23 0.33 85 1010.5
20260506180046 49 253 4.0 11.0 0.00 1.23 0.33 89 1010.4
20260506175551 49 255 5.0 9.0 0.00 1.23 0.33 93 1010.4
20260506175055 48 238 2.0 8.0 0.00 1.23 0.33 94 1010.3
20260506174507 48 237 3.0 8.0 0.00 1.23 0.33 95 1010.3
20260506174037 48 296 2.0 8.0 0.00 1.23 0.33 95 1010.4
20260506173528 48 218 4.0 10.0 0.00 1.23 0.33 95 1010.5
20260506173030 48 247 4.0 9.0 0.00 1.23 0.33 95 1010.6
20260506172535 48 250 3.0 10.0 0.00 1.23 0.33 95 1010.6
20260506172035 48 248 4.0 11.0 0.00 1.23 0.33 95 1010.6
20260506171546 47 246 4.0 11.0 0.00 1.23 0.33 95 1010.7
20260506171008 47 261 5.0 9.0 0.00 1.23 0.33 96 1010.6
20260506170554 47 238 4.0 8.0 0.00 1.23 0.33 95 1010.6
20260506170002 47 234 3.0 7.0 0.00 1.23 0.33 95 1010.6
20260506165519 47 275 4.0 10.0 0.00 1.23 0.33 95 1010.7
20260506165023 47 262 4.0 10.0 0.00 1.23 0.33 95 1010.5
20260506164530 47 233 4.0 8.0 0.00 1.23 0.33 95 1010.4
20260506164037 47 240 2.0 4.0 0.00 1.23 0.33 95 1010.4
20260506163543 46 263 2.0 4.0 0.00 1.23 0.33 95 1010.3
20260506163053 46 246 1.0 7.0 0.00 1.23 0.33 95 1010.3
20260506162536 46 233 1.0 3.0 0.00 1.23 0.33 95 1010.3
20260506162046 46 252 1.0 3.0 0.00 1.23 0.33 95 1010.3
20260506161603 46 252 1.0 4.0 0.00 1.23 0.33 95 1010.4
20260506161053 47 254 3.0 4.0 0.00 1.23 0.33 95 1010.3
20260506160559 47 261 0.0 3.0 0.00 1.23 0.33 95 1010.2
20260506160502 47 261 0.0 6.0 0.00 1.23 0.33 95 1010.2
20260506160001 47 261 2.0 6.0 0.00 1.23 0.33 95 1010.1
20260506155511 48 262 0.0 2.0 0.00 1.23 0.33 95 1010.0
20260506155025 48 263 0.0 4.0 0.00 1.23 0.33 95 1009.9
20260506154530 47 263 1.0 4.0 0.00 1.23 0.33 95 1009.8
20260506154033 48 267 1.0 3.0 0.00 1.23 0.33 95 1009.7
20260506153519 48 267 1.0 3.0 0.00 1.23 0.33 96 1009.7
20260506153027 47 267 1.0 3.0 0.00 1.23 0.33 96 1009.6
20260506152531 47 313 0.0 0.0 0.01 1.23 0.33 95 1009.5
20260506152043 47 313 0.0 1.0 0.01 1.23 0.33 96 1009.4
20260506151602 47 313 0.0 1.0 0.01 1.23 0.33 96 1009.4
20260506151057 47 313 0.0 0.0 0.01 1.23 0.33 96 1009.3
20260506150543 47 313 0.0 0.0 0.01 1.23 0.33 95 1009.5
20260506150051 46 313 0.0 1.0 0.01 1.23 0.33 95 1009.4
20260506145601 46 313 0.0 1.0 0.01 1.23 0.33 95 1009.4
20260506145502 46 313 0.0 1.0 0.01 1.23 0.33 96 1009.4
20260506145053 46 313 0.0 1.0 0.01 1.23 0.33 95 1009.3
20260506144505 46 313 0.0 2.0 0.01 1.23 0.33 95 1009.3
20260506144011 46 313 0.0 3.0 0.01 1.23 0.33 95 1009.3
20260506143520 46 313 0.0 3.0 0.01 1.23 0.33 95 1009.2
20260506143041 46 313 0.0 2.0 0.01 1.23 0.33 95 1009.1
20260506142531 46 313 0.0 2.0 0.00 1.22 0.32 95 1009.1
20260506142037 46 313 0.0 2.0 0.00 1.22 0.32 95 1008.8
20260506141548 46 313 0.0 1.0 0.00 1.22 0.32 95 1008.7
20260506141051 46 313 0.0 3.0 0.00 1.22 0.32 95 1009.1
20260506140540 46 313 0.0 3.0 0.00 1.22 0.32 95 1008.9
20260506140059 46 313 0.0 2.0 0.00 1.22 0.32 95 1008.8
20260506135554 46 323 0.0 4.0 0.00 1.22 0.32 95 1008.7
20260506135056 47 324 2.0 4.0 0.00 1.22 0.32 95 1008.6
20260506134514 47 316 0.0 3.0 0.00 1.22 0.32 95 1008.6
20260506134101 47 320 1.0 3.0 0.00 1.22 0.32 95 1008.6
20260506133509 47 320 0.0 3.0 0.00 1.22 0.32 95 1008.6
20260506133025 47 14 0.0 0.0 0.00 1.22 0.32 95 1008.7
20260506132531 47 14 0.0 1.0 0.00 1.22 0.32 95 1008.6
20260506132038 47 14 0.0 2.0 0.00 1.22 0.32 96 1008.3
20260506131545 47 14 0.0 2.0 0.00 1.22 0.32 95 1008.3
20260506131019 46 15 0.0 1.0 0.00 1.22 0.32 95 1008.2
20260506130513 46 15 0.0 0.0 0.00 1.22 0.32 95 1007.9
20260506130136 46 15 0.0 1.0 0.00 1.22 0.32 95 1007.8
20260506125506 46 329 0.0 1.0 0.00 1.22 0.32 95 1007.8
20260506125011 46 330 0.0 1.0 0.00 1.22 0.32 95 1007.8
20260506124525 46 330 0.0 1.0 0.00 1.22 0.32 95 1007.9
20260506124002 46 330 0.0 4.0 0.00 1.22 0.32 95 1008.1
20260506123511 46 330 1.0 4.0 0.00 1.22 0.32 95 1008.2
20260506123023 46 330 0.0 3.0 0.00 1.22 0.32 95 1008.2
20260506122533 46 330 0.0 4.0 0.01 1.22 0.32 95 1008.2
20260506122017 46 336 1.0 3.0 0.01 1.22 0.32 95 1008.2
20260506121517 46 336 0.0 3.0 0.01 1.22 0.32 95 1008.1
20260506121031 45 336 1.0 3.0 0.01 1.22 0.32 95 1007.9
20260506120522 45 336 0.0 3.0 0.01 1.22 0.32 95 1007.9
20260506120031 45 336 0.0 4.0 0.01 1.22 0.32 95 1007.8
20260506115535 45 337 1.0 4.0 0.01 1.22 0.32 95 1008.0
20260506115044 46 339 2.0 4.0 0.02 1.22 0.32 95 1007.9
20260506114551 46 341 0.0 0.0 0.02 1.22 0.32 95 1008.0
20260506114100 46 341 0.0 0.0 0.03 1.22 0.32 95 1007.8
20260506113509 46 341 0.0 0.0 0.04 1.22 0.32 95 1007.7
20260506113009 46 342 0.0 0.0 0.04 1.22 0.32 95 1007.7
20260506112557 46 341 0.0 1.0 0.03 1.21 0.31 95 1007.7
20260506112005 46 341 0.0 1.0 0.03 1.21 0.31 95 1007.7
20260506111520 46 341 0.0 1.0 0.03 1.21 0.31 95 1007.7
20260506111026 46 341 0.0 2.0 0.03 1.21 0.31 95 1007.6
20260506110533 45 341 0.0 2.0 0.03 1.21 0.31 95 1007.4
20260506110050 45 341 0.0 1.0 0.04 1.21 0.31 95 1007.5
20260506105549 45 341 0.0 1.0 0.04 1.21 0.31 95 1007.6
20260506105050 45 341 0.0 1.0 0.04 1.20 0.30 95 1007.7
20260506104615 45 341 0.0 1.0 0.04 1.20 0.30 95 1007.7
20260506104100 45 341 0.0 3.0 0.03 1.19 0.28 95 1007.7
20260506103508 45 54 0.0 1.0 0.03 1.18 0.28 95 1007.7
20260506103016 45 53 0.0 2.0 0.04 1.18 0.28 95 1007.6
20260506102529 45 53 0.0 3.0 0.04 1.18 0.28 95 1007.6
20260506102053 45 55 0.0 3.0 0.05 1.18 0.28 95 1007.3
20260506101550 45 9 0.0 2.0 0.06 1.18 0.28 95 1007.2
20260506101032 45 347 0.0 2.0 0.07 1.18 0.28 95 1006.8
20260506100540 45 349 0.0 6.0 0.07 1.17 0.27 95 1006.8
20260506100036 45 348 0.0 6.0 0.07 1.17 0.27 95 1007.1
20260506095547 45 51 1.0 3.0 0.08 1.17 0.27 95 1007.0
20260506095037 45 355 1.0 3.0 0.08 1.15 0.26 95 1006.6
20260506094552 45 350 1.0 4.0 0.08 1.15 0.26 95 1007.1
20260506094048 45 355 1.0 9.0 0.08 1.15 0.26 95 1007.1
20260506093550 45 351 3.0 9.0 0.08 1.14 0.25 95 1007.2
20260506093104 45 328 1.0 4.0 0.07 1.13 0.24 95 1007.5
20260506092510 45 330 1.0 5.0 0.08 1.13 0.24 95 1007.6
20260506092050 45 339 2.0 6.0 0.07 1.12 0.23 95 1007.7
20260506091559 45 328 1.0 6.0 0.07 1.12 0.22 95 1007.8
20260506091502 45 328 1.0 6.0 0.07 1.12 0.22 95 1007.8
20260506091004 45 317 0.0 6.0 0.06 1.11 0.21 94 1007.7
20260506090518 46 339 1.0 6.0 0.05 1.10 0.20 94 1007.8
20260506090058 46 350 1.0 5.0 0.05 1.11 0.20 95 1007.7
20260506085505 46 333 1.0 5.0 0.05 1.10 0.19 94 1007.7
20260506085016 46 333 2.0 5.0 0.04 1.09 0.18 95 1007.5
20260506084608 47 326 1.0 3.0 0.04 1.09 0.18 95 1007.5
20260506084507 47 319 1.0 3.0 0.04 1.09 0.18 95 1007.3
20260506084004 47 315 0.0 2.0 0.03 1.08 0.18 95 1007.2
20260506083520 47 315 0.0 2.0 0.04 1.08 0.17 95 1007.2
20260506083029 47 315 0.0 3.0 0.05 1.08 0.17 95 1007.2
20260506082534 47 315 1.0 3.0 0.05 1.07 0.16 95 1007.3
20260506082038 47 315 0.0 3.0 0.05 1.07 0.16 95 1007.4
20260506081542 47 315 0.0 3.0 0.05 1.06 0.15 95 1007.2
20260506081052 47 315 0.0 1.0 0.05 1.06 0.15 95 1007.2
20260506080503 47 315 0.0 1.0 0.05 1.06 0.15 95 1007.0
20260506073510 47 315 0.0 1.0 0.04 1.04 0.13 95 1006.9
20260506073018 47 315 0.0 1.0 0.03 1.03 0.12 95 1006.9
20260506072534 47 315 0.0 1.0 0.02 1.02 0.11 94 1007.1
20260506072100 47 315 0.0 2.0 0.02 1.02 0.11 94 1007.0
20260506071508 47 315 0.0 2.0 0.01 1.01 0.10 94 1007.1
20260506071050 47 315 0.0 2.0 0.01 1.01 0.10 94 1007.2
20260506070550 47 315 0.0 1.0 0.01 1.01 0.10 94 1007.2
20260506062503 47 315 0.0 1.0 0.02 1.01 0.09 95 1007.4
20260506062008 47 315 0.0 1.0 0.03 1.01 0.09 94 1007.2
20260506061525 47 315 0.0 1.0 0.03 1.01 0.09 94 1007.5
20260506061050 47 315 0.0 0.0 0.03 1.01 0.09 95 1007.6
20260506060601 47 315 0.0 1.0 0.04 1.01 0.09 94 1007.6
20260506051004 48 325 0.0 2.0 0.05 0.99 0.06 94 1008.4
20260506050523 48 325 1.0 2.0 0.05 0.98 0.05 94 1008.2
20260506045030 48 325 0.0 1.0 0.06 0.99 0.04 94 1008.0
20260506044540 48 325 0.0 2.0 0.07 0.99 0.04 94 1007.9
20260506044039 48 325 0.0 2.0 0.07 0.98 0.03 94 1008.1
20260506043553 48 325 0.0 0.0 0.07 0.98 0.03 94 1007.9